[[{"header":{"parameterUnit":"m.s-1","parameterCategory":1,"la1":30.2991,"la2":30.254,"lo1":-89.0895,"lo2":-89.0444,"dy":0.0017,"dx":0.0017,"nx":28,"ny":28,"refTime":"2025-12-18T03:00:00:Z","depth":0,"parameterNumber":2,"parameterNumberName":"U-component_of_WINDS"},"data":[0,0,0,0,0,0,0,0,0,0,0,0,0,0,0,0,0,0,0,0,0,0,0,0,0,0,0,0,0,0,0,0,0,0,0,0,0,0,0,0,0,0,0,0,0,0,0,0,0,0,0,0,0,0,0,0,0,0,-3.7985,-3.7986,0,-3.8063,-3.8064,-3.8065,-3.8039,-3.8037,-3.8036,-3.8034,-3.8119,-3.8122,-3.8126,0,0,0,0,0,0,0,0,0,0,0,0,0,-3.7821,-3.7824,-3.7985,-3.7986,-3.7987,-3.8063,-3.8064,-3.8065,-3.8039,-3.8037,-3.8035,-3.8033,-3.8117,-3.8122,-3.8126,0,0,0,0,0,0,0,0,0,0,0,0,0,-3.7895,-3.7825,-3.7985,-3.7984,-3.7984,-3.8063,-3.8064,-3.8065,-3.804,-3.8037,-3.8035,-3.8032,-3.8116,-3.8121,-3.8127,-3.8213,0,0,-3.8145,-3.8147,0,0,0,0,0,0,0,0,-3.7891,-3.7901,-3.7983,-3.7984,-3.7985,-3.8039,-3.8037,-3.8115,-3.8041,-3.8019,-3.8034,-3.8031,-3.8094,-3.8102,-3.8122,-3.8217,-3.8221,-3.8145,-3.8149,-3.8151,-3.8153,0,0,0,0,0,0,0,-3.7886,-3.7898,-3.8016,-3.7984,-3.7985,-3.7981,-3.7989,-3.8052,-3.807,-3.8021,-3.8019,-3.8028,-3.8094,-3.8117,-3.8124,-3.8222,-3.8145,-3.815,-3.8154,-3.8156,-3.8394,-3.8397,0,0,0,0,0,0,-3.7879,-3.7893,-3.8014,-3.8019,-3.793,-3.7986,-3.7994,-3.8024,-3.8069,-3.8074,-3.803,-3.8027,-3.8108,-3.8117,-3.8127,-3.8231,-3.8151,-3.8156,-3.816,-3.8391,-3.8394,-3.8398,0,0,0,0,0,0,-3.7876,-3.789,-3.8011,-3.7956,-3.7971,-3.7991,-3.8025,-3.8027,-3.8049,-3.8077,-3.808,-3.8049,-3.8106,-3.8119,-3.8192,-3.8233,-3.8159,-3.8164,-3.8388,-3.8392,-3.8396,-3.844,0,0,0,0,0,0,-3.7871,-3.7889,-3.7921,-3.7956,-3.7974,-3.8073,-3.8027,-3.803,-3.8058,-3.8054,-3.8095,-3.81,-3.8105,-3.8183,-3.8198,-3.824,-3.8169,-3.8384,-3.839,-3.8395,-3.8435,-3.8445,-3.8454,0,0,0,0,0,-3.7865,-3.7931,-3.7922,-3.7937,-3.8013,-3.8075,-3.8085,-3.8089,-3.8062,-3.8094,-3.8113,-3.8098,-3.8227,-3.8191,-3.8207,-3.8252,-3.8381,-3.8388,-3.8394,-3.843,-3.8443,-3.8454,0,0,0,0,0,0,-3.79,-3.7935,-3.7926,-3.8004,-3.8037,-3.807,-3.8111,-3.8102,-3.8144,-3.8139,-3.8144,-3.8153,-3.8228,-3.8248,-3.8207,-3.8338,-3.83,-3.831,-3.8322,-3.8335,-3.8344,-3.8337,-3.8173,0,0,0,0,0,-3.7917,-3.7962,-3.7991,-3.8058,-3.8074,-3.809,-3.8118,-3.8118,-3.8152,-3.8166,-3.819,-3.8225,-3.8274,-3.8306,-3.8352,-3.8438,-3.8447,-3.8477,-3.8487,-3.8494,-3.8502,-3.8551,-3.8564,-3.8419,-3.8419,-3.8419,0,0,-3.7951,-3.7976,-3.8005,-3.8065,-3.809,-3.8139,-3.8102,-3.8155,-3.8192,-3.8175,-3.8245,-3.8264,-3.8304,-3.8384,-3.8421,-3.8403,-3.8545,-3.8503,-3.8508,-3.8513,-3.8559,-3.8573,-3.8585,-3.8423,-3.8423,-3.8422,0,0,-3.804,-3.8063,-3.8121,-3.8147,-3.8185,-3.8196,-3.821,-3.8246,-3.8257,-3.8327,-3.8316,-3.8361,-3.8444,-3.8474,-3.8499,-3.8602,-3.859,-3.8617,-3.8666,-3.8713,-3.8725,-3.8735,-3.8772,-3.8785,-3.8625,-3.8625,-3.8625,0,-3.8078,-3.815,-3.8152,-3.8207,-3.8234,-3.822,-3.828,-3.8306,-3.8358,-3.8378,-3.8357,-3.8462,-3.8488,-3.8575,-3.86,-3.8622,-3.8639,-3.8611,-3.8723,-3.8733,-3.8743,-3.8778,-3.8791,-3.8628,-3.8628,-3.8628,-3.8627,0,-3.8196,-3.8246,-3.8289,-3.8338,-3.8371,-3.8428,-3.844,-3.8474,-3.8472,-3.8486,-3.8559,-3.859,-3.8643,-3.8664,-3.8663,-3.8752,-3.874,-3.8721,-3.8682,-3.8759,-3.8792,-3.8806,-3.8632,-3.8631,-3.8631,-3.863,0,0,-3.8306,-3.8357,-3.8372,-3.8395,-3.8437,-3.8477,-3.8535,-3.8585,-3.8613,-3.8651,-3.87,-3.8772,-3.8755,-3.8785,-3.8788,-3.8829,-3.8909,-3.8805,-3.8807,-3.8823,-3.9009,-3.9022,-3.9037,-3.8902,-3.8905,-3.8907,-3.9006,0,-3.8397,-3.8495,-3.85,-3.8591,-3.8638,-3.8627,-3.8678,-3.871,-3.8725,-3.8769,-3.8787,-3.8837,-3.8811,-3.8829,-3.887,-3.889,-3.8946,-3.8883,-3.8949,-3.8952,-3.8938,-3.9055,-3.9068,-3.916,-3.9019,-3.9021,-3.9022,0,-3.8516,-3.8555,-3.865,-3.8687,-3.8707,-3.8752,-3.8799,-3.8841,-3.8879,-3.8887,-3.8921,-3.8919,-3.898,-3.8941,-3.9027,-3.8984,-3.9012,-3.9026,-3.903,-3.9035,-3.899,-3.9063,-3.9189,-3.9203,-3.9043,-3.9041,-3.904,0,-3.8586,-3.8663,-3.873,-3.875,-3.8795,-3.8827,-3.8847,-3.8882,-3.8913,-3.8955,-3.8975,-3.9025,-3.9052,-3.9092,-3.9104,-3.9075,-3.919,-3.9152,-3.92,-3.9199,-3.9223,-3.9221,-3.9355,-3.9243,-3.9243,-3.9242,-3.9242,0,-3.8686,-3.8745,-3.8762,-3.8803,-3.8869,-3.8876,-3.8942,-3.8961,-3.8993,-3.9039,-3.9034,-3.9078,-3.9091,-3.9139,-3.9149,-3.9219,-3.9232,-3.9241,-3.9243,-3.9241,-3.924,-3.9258,-3.9252,-3.9246,-3.9245,-3.9245,-3.9244,0,-3.8774,-3.8789,-3.8861,-3.8897,-3.8908,-3.8955,-3.8987,-3.9028,-3.9043,-3.9102,-3.9116,-3.9141,-3.9196,-3.9212,-3.928,-3.9287,-3.9369,-3.9365,-3.9355,-3.9355,-3.9402,-3.9397,-3.9551,-3.9572,-3.9447,-3.9448,-3.9449,0,-3.8837,-3.8881,-3.8923,-3.8953,-3.8974,-3.9022,-3.9053,-3.9063,-3.9096,-3.9143,-3.9179,-3.9233,-3.9277,-3.9366,-3.9391,-3.9443,-3.9441,-3.9492,-3.9449,-3.9445,-3.9441,-3.9438,-3.9443,-3.9499,-3.95,-3.9501,-3.9502,0,-3.8946,-3.8951,-3.8995,-3.9042,-3.9079,-3.9116,-3.9153,-3.9178,-3.9194,-3.9231,-3.9287,-3.9321,-3.9389,-3.9444,-3.9497,-3.9521,-3.9515,-3.9516,-3.953,-3.9527,-3.9519,-3.9524,-3.9376,-3.9512,-3.9511,-3.951,-3.951,-3.9509,-3.9023,-3.9063,-3.9098,-3.9147,-3.9176,-3.921,-3.925,-3.9271,-3.9317,-3.9371,-3.9376,-3.9436,-3.9476,-3.9546,-3.9573,-3.9622,-3.9607,-3.9627,-3.9632,-3.9637,-3.964,-3.9512,-3.9632,-3.9632,-3.9631,-3.9631,-3.9631,0,-3.9132,-3.9154,-3.92,-3.925,-3.929,-3.928,-3.9321,-3.9355,-3.9408,-3.9444,-3.9487,-3.9553,-3.9606,-3.9636,-3.969,-3.9724,-3.9723,-3.9738,-3.9735,-3.9741,-3.965,-3.9633,-3.9738,-3.9738,-3.9738,-3.9738,-3.9738,-3.9738,-3.9193,-3.9259,-3.9269,-3.935,-3.9373,-3.9431,-3.9455,-3.9487,-3.9516,-3.9589,-3.9633,-3.9651,-3.9686,-3.9743,-3.9792,-3.98,-3.982,-3.9837,-3.9843,-3.9758,-3.9747,-3.9736,-3.972,-3.9841,-3.9841,-3.9929,-3.9929,-3.993]},{"header":{"parameterUnit":"m.s-1","parameterCategory":1,"la1":30.2991,"la2":30.254,"lo1":-89.0895,"lo2":-89.0444,"dy":0.0017,"dx":0.0017,"nx":28,"ny":28,"refTime":"2025-12-18T03:00:00:Z","depth":0,"parameterNumber":3,"parameterNumberName":"V-component_of_WINDS"},"data":[0,0,0,0,0,0,0,0,0,0,0,0,0,0,0,0,0,0,0,0,0,0,0,0,0,0,0,0,0,0,0,0,0,0,0,0,0,0,0,0,0,0,0,0,0,0,0,0,0,0,0,0,0,0,0,0,0,0,2.8019,2.8019,0,2.8017,2.8017,2.8016,2.7974,2.7973,2.7972,2.7971,2.7965,2.7965,2.7966,0,0,0,0,0,0,0,0,0,0,0,0,0,2.7985,2.7986,2.8019,2.8019,2.8019,2.8017,2.8017,2.8016,2.7974,2.7973,2.7972,2.7971,2.7964,2.7965,2.7966,0,0,0,0,0,0,0,0,0,0,0,0,0,2.7993,2.7986,2.8019,2.7998,2.7996,2.8017,2.8017,2.8016,2.7975,2.7973,2.7971,2.797,2.7964,2.7965,2.7966,2.8006,0,0,2.797,2.7971,0,0,0,0,0,0,0,0,2.7993,2.7994,2.8001,2.7999,2.7997,2.7994,2.8002,2.8013,2.7975,2.7983,2.7971,2.7969,2.7975,2.7976,2.7979,2.8006,2.8005,2.797,2.7971,2.7971,2.7972,0,0,0,0,0,0,0,2.7992,2.7994,2.8018,2.8001,2.7999,2.7988,2.7987,2.8004,2.7988,2.7982,2.7979,2.7979,2.7974,2.7977,2.7978,2.8005,2.797,2.7971,2.7972,2.7973,2.8068,2.807,0,0,0,0,0,0,2.7995,2.7994,2.8018,2.8018,2.7991,2.799,2.7989,2.7997,2.7988,2.7985,2.7981,2.7977,2.7976,2.7977,2.7978,2.8026,2.7971,2.7973,2.7973,2.8067,2.8069,2.8071,0,0,0,0,0,0,2.7994,2.7998,2.8018,2.8005,2.8007,2.7992,2.8001,2.7997,2.8001,2.7987,2.7983,2.7987,2.7975,2.7976,2.8,2.8025,2.7973,2.7974,2.8064,2.8067,2.807,2.8121,0,0,0,0,0,0,2.7994,2.7998,2.8013,2.8006,2.8008,2.8041,2.8002,2.7999,2.8004,2.7999,2.7992,2.7989,2.7974,2.7999,2.8002,2.8026,2.7975,2.8062,2.8066,2.8069,2.8117,2.8125,2.8132,0,0,0,0,0,2.7993,2.8025,2.8014,2.8017,2.8026,2.8043,2.8044,2.8026,2.8006,2.8021,2.8012,2.7989,2.8022,2.8002,2.8004,2.8029,2.806,2.8065,2.8069,2.8114,2.8123,2.8132,0,0,0,0,0,0,2.8033,2.8024,2.8011,2.8042,2.8044,2.8036,2.8054,2.8037,2.8043,2.8038,2.8015,2.8014,2.8043,2.8038,2.8016,2.8069,2.8037,2.8042,2.8071,2.808,2.8087,2.8088,2.7976,0,0,0,0,0,2.8046,2.8061,2.8052,2.8081,2.8083,2.8069,2.8075,2.8062,2.8062,2.8061,2.8054,2.8055,2.8065,2.8072,2.808,2.8116,2.8115,2.8135,2.8142,2.8149,2.8153,2.8174,2.8184,2.8084,2.8084,2.8084,0,0,2.8072,2.8069,2.8079,2.8089,2.8088,2.8105,2.8069,2.8086,2.8098,2.8063,2.8087,2.8083,2.8081,2.8112,2.8125,2.8109,2.8181,2.8154,2.8159,2.816,2.8179,2.8189,2.8197,2.8087,2.8086,2.8086,0,0,2.8128,2.8127,2.8152,2.8154,2.8155,2.8146,2.8152,2.8147,2.8144,2.8168,2.8143,2.8156,2.8174,2.8175,2.8178,2.8239,2.8219,2.8242,2.8281,2.8302,2.831,2.8317,2.834,2.8348,2.8246,2.8246,2.8247,0,2.816,2.8184,2.8167,2.8188,2.8193,2.8166,2.8192,2.8193,2.8196,2.8201,2.8183,2.8208,2.8204,2.8237,2.8252,2.8255,2.8262,2.8242,2.831,2.8317,2.8323,2.8345,2.8354,2.8249,2.8249,2.8249,2.8249,0,2.8224,2.8242,2.8262,2.8269,2.8277,2.8299,2.8286,2.8296,2.8284,2.8277,2.8303,2.8298,2.8307,2.8314,2.83,2.8345,2.8335,2.8314,2.8282,2.8336,2.8356,2.8364,2.8254,2.8253,2.8252,2.8251,0,0,2.8303,2.8304,2.8312,2.8316,2.8317,2.8329,2.8352,2.8362,2.8372,2.8376,2.8395,2.8413,2.8395,2.8398,2.8384,2.8403,2.8454,2.8379,2.8379,2.8395,2.8506,2.8522,2.8532,2.8441,2.8442,2.8444,2.8506,0,2.8359,2.8399,2.8386,2.8426,2.8443,2.8419,2.8439,2.8442,2.8437,2.845,2.8443,2.8457,2.8431,2.8434,2.8451,2.8444,2.8476,2.8439,2.8459,2.8459,2.8461,2.8543,2.8559,2.8618,2.8514,2.8515,2.8516,0,2.8428,2.8439,2.8482,2.8483,2.8489,2.8508,2.8518,2.8531,2.8534,2.8529,2.8536,2.8519,2.8542,2.851,2.8542,2.8517,2.8524,2.8523,2.8525,2.8526,2.8491,2.8547,2.8637,2.8646,2.8528,2.8527,2.8526,0,2.8484,2.8508,2.8538,2.8542,2.8543,2.8558,2.8559,2.856,2.8569,2.8578,2.8583,2.8594,2.86,2.8608,2.8596,2.8574,2.863,2.8597,2.8627,2.8627,2.8639,2.8639,2.8732,2.8643,2.8643,2.8642,2.8642,0,2.8548,2.8576,2.8563,2.8582,2.8612,2.8598,2.8628,2.8627,2.8629,2.8647,2.8626,2.8642,2.8624,2.8639,2.8629,2.8658,2.866,2.8657,2.8655,2.866,2.8661,2.8664,2.866,2.8645,2.8644,2.8644,2.8643,0,2.8615,2.8608,2.8639,2.864,2.8641,2.8663,2.8664,2.8681,2.8675,2.8698,2.8702,2.8694,2.8711,2.8699,2.8715,2.8709,2.8747,2.8738,2.8747,2.8745,2.8776,2.8774,2.8876,2.8889,2.879,2.8791,2.8792,0,2.8656,2.8678,2.8682,2.8694,2.8697,2.8715,2.8725,2.8712,2.8722,2.873,2.8746,2.8762,2.8774,2.8803,2.8798,2.8811,2.8802,2.8837,2.8804,2.881,2.8805,2.8804,2.8807,2.8844,2.8845,2.8846,2.8847,0,2.8732,2.8728,2.8743,2.8759,2.8772,2.8783,2.8791,2.8802,2.8789,2.8802,2.8821,2.8831,2.885,2.8866,2.8878,2.8878,2.8861,2.8858,2.8866,2.8871,2.8877,2.8876,2.8767,2.8855,2.8854,2.8854,2.8853,2.8853,2.8788,2.8807,2.8814,2.8833,2.8839,2.8849,2.8866,2.8865,2.8881,2.8896,2.8888,2.891,2.8915,2.893,2.8933,2.895,2.8936,2.8947,2.895,2.8953,2.8958,2.8874,2.8952,2.8952,2.8951,2.8951,2.8951,0,2.8863,2.8868,2.8885,2.89,2.8916,2.8901,2.8911,2.8924,2.8945,2.8952,2.8966,2.8989,2.9005,2.9003,2.9018,2.9033,2.9026,2.9037,2.9036,2.9037,2.8969,2.8962,2.9043,2.9043,2.9043,2.9043,2.9043,2.9043,2.8904,2.8937,2.8935,2.8971,2.8974,2.8998,2.9006,2.9015,2.9021,2.9048,2.9063,2.9062,2.9066,2.9082,2.9097,2.9096,2.9103,2.9118,2.9114,2.9051,2.9042,2.9033,2.9026,2.912,2.912,2.9181,2.9182,2.9182]}]]